• Join FlightAware (Why Join?)
  • Login
  • US Flag 
02:57PM EDT


 

Airport Tracker/Info


-or-


 

Live Flight TrackerFlight Track Log ✈ SKW6209 ✈ 17-May-2013 ✈ KLAX - KSLC

Flight Track Log - Related Links

Times and Time Zones

All times are in EDT time to prevent confusion due to time zone crossing. See the SKW6209 flight status page for this flight to view local times or setup timezone preferences in your user account.

Time Position Orientation Groundspeed Altitude Reporting Facility
EDT Latitude Longitude Course Direction KTS MPH feet Rate Location/Type
10:56AM 33.9333 -118.4333 55° Northeast 182 209 1,500  Level Southern California TRACON
10:57AM 33.9133 -118.5144 253° West 210 242 4,100 2,460 Climbing Los Angeles Center
10:58AM 33.8600 -118.4939 162° South 254 292 6,900 2,460 Climbing Los Angeles Center
10:59AM 34.1923 -117.9489 59° Northeast  Level FlightAware Approximate
10:59AM 33.8883 -118.4372 59° Northeast 251 289 9,200  Level Los Angeles Center
11:00AM 34.2625 -117.8293 68° East  Level FlightAware Approximate
11:00AM 33.9539 -118.4006 25° Northeast 286 329 11,000  Level Los Angeles Center
11:01AM 34.3304 -117.7010 55° Northeast  Level FlightAware Approximate
11:01AM 34.0139 -118.2928 56° Northeast 320 368 14,200  Level Los Angeles Center
11:02AM 34.0656 -118.2014 56° Northeast 328 377 16,600 2,160 Climbing Los Angeles Center
11:03AM 34.1308 -118.0853 56° Northeast 347 399 19,100 2,220 Climbing Los Angeles Center
11:04AM 34.1864 -117.9856 56° Northeast 356 410 21,200 1,740 Climbing Los Angeles Center
11:05AM 34.2456 -117.8808 56° Northeast 374 430 22,800 1,560 Climbing Los Angeles Center
11:06AM 34.3058 -117.7725 56° Northeast 386 444 24,500 1,500 Climbing Los Angeles Center
11:07AM 34.3733 -117.6658 53° Northeast 400 460 26,000 1,560 Climbing Los Angeles Center
11:08AM 34.4569 -117.5486 49° Northeast 413 475 27,800 1,500 Climbing Los Angeles Center
11:09AM 34.5325 -117.4411 50° Northeast 419 482 29,200 1,080 Climbing Los Angeles Center
11:10AM 34.6097 -117.3294 50° Northeast 432 497 30,100 960 Climbing Los Angeles Center
11:11AM 34.7058 -117.1917 50° Northeast 447 514 31,300 1,140 Climbing Los Angeles Center
11:12AM 34.7886 -117.0728 50° Northeast 460 529 32,500 960 Climbing Los Angeles Center
11:13AM 34.8700 -116.9531 50° Northeast 462 532 33,400 780 Climbing Los Angeles Center
11:15AM 34.9542 -116.8308 50° Northeast 470 541 34,200 720 Climbing Los Angeles Center
11:16AM 35.0394 -116.7064 50° Northeast 479 551 35,000 360 Climbing Los Angeles Center
11:17AM 35.1461 -116.5494 50° Northeast 503 579 35,000  Level Los Angeles Center
11:18AM 35.2403 -116.4150 49° Northeast 521 600 35,000  Level Los Angeles Center
11:19AM 35.3319 -116.2808 50° Northeast 518 596 35,000  Level Los Angeles Center
11:20AM 35.4222 -116.1425 51° Northeast 522 601 35,000  Level Los Angeles Center
11:21AM 35.5178 -116.0058 49° Northeast 528 608 35,000  Level Los Angeles Center
11:22AM 35.6133 -115.8636 50° Northeast 526 605 35,000  Level Los Angeles Center
11:23AM 35.7450 -115.7228 41° Northeast 527 606 35,000  Level Los Angeles Center
11:24AM 35.8686 -115.6192 34° Northeast 537 618 35,000  Level Los Angeles Center
11:25AM 35.9897 -115.5164 34° Northeast 534 615 35,000  Level Los Angeles Center
11:26AM 36.1097 -115.4125 35° Northeast 533 613 35,000  Level Los Angeles Center
11:27AM 36.2303 -115.3081 35° Northeast 538 619 35,000  Level Los Angeles Center
11:28AM 36.3742 -115.1811 35° Northeast 538 619 35,000  Level Los Angeles Center
11:29AM 36.4956 -115.0744 35° Northeast 537 618 35,000  Level Los Angeles Center
11:30AM 36.6169 -114.9700 35° Northeast 535 616 35,000  Level Los Angeles Center
11:31AM 36.7367 -114.8642 35° Northeast 531 611 35,000  Level Los Angeles Center
11:32AM 36.8569 -114.7622 34° Northeast 526 605 35,000  Level Los Angeles Center
11:33AM 36.9989 -114.6350 36° Northeast 523 602 35,000  Level Los Angeles Center
11:34AM 37.1178 -114.5281 36° Northeast 525 604 35,000  Level Los Angeles Center
11:35AM 37.2342 -114.4175 37° Northeast 526 605 35,000  Level Los Angeles Center
11:36AM 37.3533 -114.3136 35° Northeast 523 602 35,000  Level Los Angeles Center
11:37AM 37.4725 -114.2108 34° Northeast 520 598 35,000  Level Los Angeles Center
11:38AM 37.6128 -114.0825 36° Northeast 521 600 35,000  Level Salt Lake Center
11:39AM 37.7333 -113.9744 35° Northeast 528 608 35,000  Level Salt Lake Center
11:41AM 37.8750 -113.8458 36° Northeast 521 600 35,000  Level Salt Lake Center
11:42AM 37.9936 -113.7361 36° Northeast 525 604 35,000  Level Salt Lake Center
11:43AM 38.1114 -113.6278 36° Northeast 521 600 35,000  Level Salt Lake Center
11:44AM 38.2311 -113.5183 36° Northeast 527 606 35,000  Level Salt Lake Center
11:45AM 38.3492 -113.4081 36° Northeast 524 603 35,000  Level Salt Lake Center
11:46AM 38.4669 -113.3006 36° Northeast 520 598 35,000  Level Salt Lake Center
11:47AM 38.5847 -113.1900 36° Northeast 523 602 35,000 -840 Level Salt Lake Center
11:48AM 38.7272 -113.0569 36° Northeast 526 605 33,400 -1,500 Descending Salt Lake Center
11:49AM 38.8469 -112.9431 37° Northeast 531 611 31,900 -1,260 Descending Salt Lake Center
11:50AM 38.9667 -112.8281 37° Northeast 535 616 30,900 -480 Descending Salt Lake Center
11:51AM 39.0817 -112.7203 36° Northeast 515 593 31,000  Climbing Salt Lake Center
11:52AM 39.1964 -112.6097 37° Northeast 514 592 31,000 -780 Level Salt Lake Center
11:53AM 39.3222 -112.4922 36° Northeast 522 601 29,400 -2,580 Descending Salt Lake Center
11:54AM 39.4567 -112.4200 23° Northeast 524 603 25,700 -3,480 Descending Salt Lake Center
11:55AM 39.5844 -112.3450 24° Northeast 509 586 22,300 -3,240 Descending Salt Lake Center
11:56AM 39.7039 -112.2794 23° Northeast 477 549 19,100 -3,420 Descending Salt Lake Center
11:57AM 39.8414 -112.1967 25° Northeast 461 531 15,300 -2,040 Descending Salt Lake Center
11:58AM 39.9419 -112.1367 25° Northeast 392 451 15,000 -480 Descending Salt Lake Center
11:59AM 40.0306 -112.0836 25° Northeast 353 406 14,400 -1,260 Descending Salt Lake Center
12:00PM 40.1164 -112.0314 25° Northeast 342 394 12,500 -1,800 Descending Salt Lake Center
12:01PM 40.2164 -111.9789 22° Northeast 335 386 10,600 -1,260 Descending Salt Lake Center
12:02PM 40.2803 -111.9400 25° Northeast 309 356 9,900 -720 Descending Salt Lake Center
12:03PM 40.3714 -111.9442 358° North 269 310 9,200 -480 Descending Salt Lake Center
12:04PM 40.4333 -111.9647 346° North 253 291 9,000 -120 Descending Salt Lake Center
12:05PM 40.5078 -111.9706 357° North 260 299 9,000 -360 Level Salt Lake Center
12:06PM 40.5775 -111.9750 357° North 242 278 8,300 -960 Descending Salt Lake Center
12:07PM 40.6347 -111.9789 357° North 195 224 7,000 -1,140 Descending Salt Lake Center